EN

Hourly Weather Lahirevo

Today, 24 July, Saturday

Time Temperature Precipitation Wind Pressure Humidity
00:00 +13°C° 0 mm 2 mps 746 mmHg 72%
01:00 +13°C° 0 mm 2 mps 746 mmHg 73%
02:00 +13°C° 0 mm 2 mps 746 mmHg 73%
03:00 +13°C° 0 mm 2 mps 746 mmHg 74%
04:00 +13°C° 0 mm 2 mps 747 mmHg 75%
05:00 +13°C° 0 mm 2 mps 747 mmHg 75%
06:00 +14°C° 0 mm 2 mps 747 mmHg 69%
07:00 +16°C° 0 mm 2 mps 748 mmHg 63%
08:00 +17°C° 0 mm 2 mps 748 mmHg 58%
09:00 +18°C° 0.1 mm 2 mps 748 mmHg 53%
10:00 +19°C° 0.1 mm 2 mps 749 mmHg 47%
11:00 +20°C° 0.1 mm 2 mps 749 mmHg 42%
12:00 +20°C° 0 mm 2 mps 749 mmHg 43%
13:00 +20°C° 0 mm 2 mps 749 mmHg 45%
14:00 +19°C° 0 mm 2 mps 750 mmHg 46%
15:00 +19°C° 0 mm 2 mps 750 mmHg 47%
16:00 +20°C° 0 mm 1 mps 750 mmHg 48%
17:00 +20°C° 0 mm 1 mps 750 mmHg 49%
18:00 +19°C° 0 mm 1 mps 751 mmHg 54%
19:00 +16°C° 0 mm 1 mps 751 mmHg 59%
20:00 +15°C° 0 mm 1 mps 751 mmHg 64%
21:00 +15°C° 0 mm 1 mps 751 mmHg 63%
22:00 +15°C° 0 mm 1 mps 752 mmHg 63%
23:00 +15°C° 0 mm 1 mps 752 mmHg 62%

Tomorrow, 25 July, Sunday

Time Temperature Precipitation Wind Pressure Humidity
00:00 +15°C° 0 mm 1 mps 752 mmHg 63%
01:00 +14°C° 0 mm 1 mps 752 mmHg 65%
02:00 +14°C° 0 mm 2 mps 752 mmHg 66%
03:00 +14°C° 0 mm 1 mps 753 mmHg 66%
04:00 +15°C° 0 mm 1 mps 753 mmHg 67%
05:00 +15°C° 0 mm 1 mps 753 mmHg 67%
06:00 +16°C° 0 mm 1 mps 753 mmHg 62%
07:00 +19°C° 0 mm 1 mps 754 mmHg 58%
08:00 +19°C° 0 mm 2 mps 754 mmHg 53%
09:00 +20°C° 0 mm 2 mps 754 mmHg 46%
10:00 +23°C° 0 mm 2 mps 754 mmHg 40%
11:00 +24°C° 0 mm 2 mps 754 mmHg 33%
12:00 +25°C° 0 mm 2 mps 754 mmHg 34%
13:00 +25°C° 0 mm 2 mps 754 mmHg 34%
14:00 +25°C° 0 mm 3 mps 754 mmHg 35%
15:00 +24°C° 0 mm 2 mps 754 mmHg 38%
16:00 +24°C° 0 mm 2 mps 754 mmHg 42%
17:00 +23°C° 0 mm 2 mps 754 mmHg 45%
18:00 +21°C° 0 mm 2 mps 754 mmHg 49%
19:00 +21°C° 0 mm 1 mps 755 mmHg 53%
20:00 +19°C° 0 mm 1 mps 755 mmHg 57%
21:00 +19°C° 0 mm 1 mps 755 mmHg 58%
22:00 +18°C° 0 mm 1 mps 755 mmHg 59%
23:00 +18°C° 0 mm 1 mps 755 mmHg 60%

Day after tomorrow, 26 July, Monday

Time Temperature Precipitation Wind Pressure Humidity
00:00 +18°C° 0 mm 1 mps 756 mmHg 60%
01:00 +18°C° 0 mm 1 mps 756 mmHg 60%
02:00 +18°C° 0 mm 1 mps 756 mmHg 60%
03:00 +18°C° 0 mm 1 mps 756 mmHg 62%
04:00 +18°C° 0 mm 1 mps 756 mmHg 65%
05:00 +16°C° 0 mm 2 mps 756 mmHg 67%
06:00 +18°C° 0 mm 1 mps 756 mmHg 66%
07:00 +19°C° 0 mm 1 mps 756 mmHg 66%
08:00 +19°C° 0 mm 1 mps 756 mmHg 66%
09:00 +19°C° 0 mm 2 mps 756 mmHg 62%
10:00 +21°C° 0 mm 2 mps 756 mmHg 58%
11:00 +23°C° 0 mm 2 mps 756 mmHg 54%
12:00 +24°C° 0 mm 3 mps 756 mmHg 50%
13:00 +25°C° 0 mm 3 mps 756 mmHg 47%
14:00 +26°C° 0 mm 3 mps 756 mmHg 43%
15:00 +26°C° 0 mm 3 mps 756 mmHg 46%
16:00 +25°C° 0 mm 2 mps 755 mmHg 49%
17:00 +25°C° 0 mm 2 mps 755 mmHg 51%
18:00 +23°C° 0 mm 2 mps 755 mmHg 59%
19:00 +20°C° 0 mm 2 mps 755 mmHg 66%
20:00 +18°C° 0 mm 2 mps 755 mmHg 74%
21:00 +19°C° 0 mm 1 mps 755 mmHg 77%
22:00 +18°C° 0 mm 1 mps 756 mmHg 81%
23:00 +16°C° 0 mm 1 mps 756 mmHg 84%

27 July, Tuesday

Time Temperature Precipitation Wind Pressure Humidity
00:00 +16°C° 0 mm 1 mps 756 mmHg 85%
01:00 +16°C° 0 mm 1 mps 756 mmHg 86%
02:00 +16°C° 0 mm 1 mps 756 mmHg 87%
03:00 +16°C° 0 mm 1 mps 756 mmHg 86%
04:00 +16°C° 0 mm 1 mps 756 mmHg 84%
05:00 +18°C° 0 mm 1 mps 756 mmHg 83%
06:00 +20°C° 0 mm 1 mps 756 mmHg 74%
07:00 +22°C° 0 mm 1 mps 756 mmHg 65%
08:00 +25°C° 0 mm 2 mps 756 mmHg 56%
09:00 +26°C° 0 mm 2 mps 755 mmHg 51%
10:00 +27°C° 0 mm 2 mps 755 mmHg 46%
11:00 +29°C° 0 mm 2 mps 755 mmHg 41%
12:00 +28°C° 0 mm 2 mps 755 mmHg 43%
13:00 +28°C° 0 mm 2 mps 754 mmHg 46%
14:00 +27°C° 0 mm 1 mps 754 mmHg 48%
15:00 +27°C° 0 mm 2 mps 754 mmHg 50%
16:00 +26°C° 0 mm 2 mps 754 mmHg 53%
17:00 +25°C° 0 mm 3 mps 754 mmHg 55%
18:00 +24°C° 0 mm 2 mps 754 mmHg 60%
19:00 +23°C° 0 mm 2 mps 754 mmHg 65%
20:00 +21°C° 0 mm 1 mps 753 mmHg 70%
21:00 +21°C° 0 mm 1 mps 753 mmHg 72%
22:00 +20°C° 0 mm 1 mps 753 mmHg 74%
23:00 +20°C° 0 mm 1 mps 753 mmHg 76%

28 July, Wednesday

Time Temperature Precipitation Wind Pressure Humidity
00:00 +19°C° 0 mm 1 mps 753 mmHg 80%
01:00 +18°C° 0 mm 1 mps 753 mmHg 84%
02:00 +18°C° 0 mm 1 mps 753 mmHg 88%
03:00 +18°C° 0 mm 1 mps 753 mmHg 87%
04:00 +18°C° 0 mm 1 mps 753 mmHg 86%
05:00 +19°C° 0 mm 1 mps 753 mmHg 85%
06:00 +19°C° 0.1 mm 2 mps 752 mmHg 80%
07:00 +21°C° 0.1 mm 2 mps 752 mmHg 74%
08:00 +24°C° 0.1 mm 2 mps 752 mmHg 68%
09:00 +26°C° 0 mm 2 mps 751 mmHg 59%
10:00 +28°C° 0 mm 2 mps 751 mmHg 49%
11:00 +30°C° 0 mm 3 mps 751 mmHg 40%
12:00 +30°C° 0 mm 3 mps 750 mmHg 40%
13:00 +29°C° 0 mm 3 mps 750 mmHg 40%
14:00 +29°C° 0 mm 3 mps 749 mmHg 40%
15:00 +29°C° 0 mm 3 mps 749 mmHg 40%
16:00 +29°C° 0 mm 3 mps 748 mmHg 40%
17:00 +29°C° 0 mm 4 mps 748 mmHg 40%
18:00 +27°C° 0 mm 3 mps 748 mmHg 49%
19:00 +24°C° 0 mm 3 mps 747 mmHg 57%
20:00 +21°C° 0 mm 3 mps 747 mmHg 66%
21:00 +20°C° 0.3 mm 2 mps 747 mmHg 73%
22:00 +19°C° 0.3 mm 2 mps 746 mmHg 80%
23:00 +19°C° 0.3 mm 1 mps 746 mmHg 87%

29 July, Thursday

Time Temperature Precipitation Wind Pressure Humidity
00:00 +18°C° 0.4 mm 2 mps 745 mmHg 89%
01:00 +18°C° 0.4 mm 2 mps 745 mmHg 92%
02:00 +18°C° 0.4 mm 3 mps 744 mmHg 94%
03:00 +18°C° 0.4 mm 3 mps 744 mmHg 95%
04:00 +18°C° 0.4 mm 3 mps 743 mmHg 95%
05:00 +18°C° 0.4 mm 3 mps 743 mmHg 96%
06:00 +19°C° 0.1 mm 3 mps 742 mmHg 94%
07:00 +20°C° 0.1 mm 3 mps 742 mmHg 91%
08:00 +20°C° 0.1 mm 3 mps 742 mmHg 88%
09:00 +21°C° 0.1 mm 3 mps 742 mmHg 88%
10:00 +21°C° 0.1 mm 3 mps 742 mmHg 87%
11:00 +21°C° 0.1 mm 3 mps 742 mmHg 86%
12:00 +22°C° 0.3 mm 3 mps 742 mmHg 81%
13:00 +25°C° 0.3 mm 4 mps 742 mmHg 76%
14:00 +26°C° 0.3 mm 4 mps 742 mmHg 70%
15:00 +26°C° 0.3 mm 4 mps 742 mmHg 71%
16:00 +25°C° 0.3 mm 4 mps 742 mmHg 71%
17:00 +25°C° 0.3 mm 4 mps 742 mmHg 71%
18:00 +24°C° 0.1 mm 3 mps 743 mmHg 77%
19:00 +21°C° 0.1 mm 2 mps 743 mmHg 82%
20:00 +20°C° 0.1 mm 2 mps 743 mmHg 88%
21:00 +19°C° 0 mm 2 mps 743 mmHg 90%
22:00 +18°C° 0 mm 2 mps 744 mmHg 93%
23:00 +18°C° 0 mm 2 mps 744 mmHg 95%
Show more